Location: Fort Wayne
(41.1310°N, 85.1290°W)
Time: 03:21:21
(UTC-04:00)

Daily predictions for brighter satellites

Satellite Brightness Start Highest point End
(mag) Time Altitude Azimuth Time Altitude Azimuth Time Altitude Azimuth
Cosmos 1758 Rocket 3.4 00:04:46 73° E 00:04:46 73° E 00:09:02 10° NNE
H-2A R/B 2.6 00:05:36 48° SW 00:06:13 52° W 00:10:39 10° NNW
Cosmos 1953 2.3 00:03:16 10° N 00:07:12 82° NNW 00:07:12 82° NNW
Spot 4 3.7 00:08:32 71° SSE 00:09:03 88° ENE 00:13:54 10° NNW
Meteor 2-5 Rocket 4.4 00:09:05 38° ESE 00:09:40 39° E 00:15:07 10° NNE
Lacrosse 5 1.7 00:12:01 69° SSW 00:12:34 80° SE 00:17:39 10° NE
ISS -0.7 00:10:50 10° NNW 00:12:40 14° N 00:14:30 10° NE
Cosmos 972 Rocket 3.7 00:10:44 10° NNW 00:15:51 80° ENE 00:16:17 73° SE
CZ-2C R/B 3.8 00:11:12 10° NE 00:15:50 29° E 00:15:50 29° E
Cosmos 1331 Rocket 3.8 00:11:39 10° NNW 00:16:51 88° ENE 00:17:24 72° SSE
Cosmos 1110 Rocket 3.9 00:16:32 10° NNW 00:21:47 74° WSW 00:22:19 67° SSW
Nadezhda 3 Rocket 4.4 00:19:34 33° SW 00:22:23 58° W 00:28:39 10° N
Cosmos 389 Rocket 3.7 00:20:20 10° NNW 00:22:49 38° NW 00:22:49 38° NW
Cosmos 1470 3.2 00:19:55 10° N 00:23:19 61° NNE 00:23:19 61° NNE
Cosmos 2239 Rocket 4.4 00:18:53 10° N 00:25:05 80° W 00:26:35 54° S
USA 267 3.6 00:19:26 10° ENE 00:25:20 43° ESE 00:25:20 43° ESE
Cosmos 1707 3.7 00:27:46 42° NE 00:27:46 42° NE 00:30:31 10° NNE
Cosmos 1302 Rocket 4.1 00:21:43 10° NNW 00:26:58 62° ENE 00:27:31 58° E
SeaSat 1 4.0 00:27:30 23° E 00:28:58 27° NE 00:33:06 10° N
Lacrosse 5 rocket 1.7 00:25:36 10° NW 00:30:15 69° NE 00:30:18 69° NE
Cosmos 1953 Rocket 4.0 00:31:48 53° W 00:32:02 54° W 00:36:25 10° N
NOSS 3-1 (C) 4.0 00:27:51 10° NW 00:35:32 80° WSW 00:38:12 48° SSE
Cosmos 1821 Rocket 4.1 00:29:20 10° NNW 00:35:37 68° W 00:37:10 50° SSW
Meteor 1-24 Rocket 4.4 00:37:23 41° ESE 00:37:48 41° E 00:43:25 10° NNE
Meteor 2-15 4.5 00:44:57 57° ESE 00:45:35 60° E 00:51:32 10° NNE
ALOS 2 3.2 00:48:44 47° NE 00:48:44 47° NE 00:52:36 10° N
CZ-2C R/B 3.4 00:48:57 56° ESE 00:49:37 60° ENE 00:55:15 10° N
Cosmos 2084 Rocket 4.2 00:51:11 44° NNE 00:51:11 44° NNE 00:53:59 10° NNE
Cosmos-2242 3.5 00:46:37 10° NNW 00:50:16 56° NW 00:50:16 56° NW
Cosmos 1727 Rocket 3.9 00:50:54 62° SE 00:51:43 70° E 00:57:57 10° NNE
Cosmos 2251 Rocket 4.2 00:54:36 40° WSW 00:55:57 49° WNW 01:01:11 10° N
SL-16 R/B 2.5 00:51:42 10° NNW 00:57:10 51° WSW 00:57:26 51° WSW
Cosmos 1605 Rocket 3.8 00:52:24 10° N 00:58:31 83° W 00:59:22 67° SSW
CZ-4B R/B 4.3 01:04:14 11° NE 01:04:14 11° NE 01:04:33 10° NE
Meteor 2-15 Rocket 4.3 01:08:38 70° SSE 01:09:17 78° E 01:15:22 10° N
ATLAS 2AS CENTAUR R/B 4.0 01:02:00 10° NNW 01:09:34 41° NE 01:15:09 17° ESE
NOSS 3-1 (A) 4.1 01:02:26 10° NW 01:10:04 67° WSW 01:12:02 52° S
Cosmos 2227 Rocket 4.5 01:11:46 11° E 01:11:46 11° E 01:12:32 10° E
Cosmos 2098 Rocket 3.8 01:07:32 10° NNW 01:12:30 65° W 01:12:52 63° WSW
Cosmos 2221 3.7 01:08:37 10° N 01:12:00 34° ENE 01:12:00 34° ENE
Cosmos 2173 Rocket 4.3 01:07:25 10° N 01:13:20 49° ENE 01:14:15 46° ESE
Cosmos 1153 Rocket 4.3 01:08:28 10° N 01:14:46 89° E 01:15:37 69° S
ATLAS CENTAUR R/B 3.8 01:18:13 10° WNW 01:18:44 13° WNW 01:18:44 13° WNW
Cosmos 2322 3.5 01:19:05 10° NNW 01:24:46 90° E 01:25:00 83° SSE
ARGOS Delta rocket 4.3 01:21:48 10° N 01:27:08 64° WNW 01:27:36 61° WSW
Cosmos 2237 4.2 01:24:40 10° NNW 01:30:23 74° ENE 01:30:52 69° ESE
Meteor 2-1 Rocket 4.1 01:24:52 10° N 01:30:50 89° W 01:31:18 77° S
Cosmos 1833 4.5 01:30:32 54° WSW 01:31:23 60° WNW 01:37:02 10° NNE
Cosmos 1459 Rocket 4.0 01:26:01 10° N 01:32:23 73° E 01:33:21 62° SE
Cosmos 2360 Rocket 2.2 01:28:01 10° NNW 01:33:33 65° WSW 01:33:33 65° WSW
Cosmos 2219 3.3 01:37:44 60° E 01:37:44 60° E 01:43:05 10° NNE
Meteor 2-17 Rocket 4.3 01:37:30 10° N 01:43:39 83° E 01:44:21 71° SSE
COSMOS 2428 2.7 01:39:11 10° NNW 01:44:56 72° ENE 01:45:35 65° ESE
Cosmos 2322 Rocket 3.9 01:42:59 10° NW 01:46:33 19° W 01:46:33 19° W
Cosmos 1340 Rocket 3.9 01:50:32 42° NNE 01:50:32 42° NNE 01:53:15 10° N
Cosmos 2333 4.3 01:43:36 10° NNW 01:49:20 70° ENE 01:50:00 63° ESE
ISS -1.2 01:46:56 10° NW 01:48:13 19° NNW 01:48:13 19° NNW
Lacrosse 5 3.9 01:51:53 10° W 01:56:03 25° NNW 02:00:15 10° NNE
CZ-2C R/B 3.6 01:51:11 10° N 01:56:18 38° WNW 01:57:22 35° W
Cosmos 2016 Rocket 3.9 01:52:05 10° N 01:58:29 82° E 01:59:30 65° SSE
Cosmos 1908 4.3 01:56:12 10° N 01:58:58 44° N 01:58:58 44° N
Cosmos 1802 Rocket 3.8 01:54:52 10° N 02:01:09 81° W 02:01:53 69° SSW
Cosmos 2100 Rocket 4.0 01:56:17 10° NNW 02:02:22 62° W 02:03:00 59° WSW
Cosmos 407 Rocket 3.5 02:04:04 71° E 02:04:04 71° E 02:09:00 10° NNE
SeaSat 1 3.3 02:07:16 38° W 02:07:16 38° W 02:11:00 10° NW
H-2A R/B 3.3 02:02:04 10° NNE 02:05:37 47° ENE 02:05:37 47° ENE
USA 267 3.7 02:02:20 10° NE 02:08:43 57° NW 02:12:39 24° WSW
Cosmos 2219 Rocket 2.2 02:09:47 10° NNW 02:15:30 74° ENE 02:16:23 61° ESE
Cosmos 1356 Rocket 4.1 02:17:04 51° NNE 02:17:04 51° NNE 02:20:13 10° NNE
Cosmos 2297 Rocket 3.2 02:16:08 32° ESE 02:16:26 32° ESE 02:21:22 10° NE
Cosmos 1674 3.9 02:17:39 40° NNW 02:17:39 40° NNW 02:20:21 10° N
Cosmos 2333 Rocket 2.5 02:11:02 10° NNW 02:16:43 62° ENE 02:18:03 48° ESE
Cosmos 1726 3.4 02:14:41 10° N 02:17:24 38° NE 02:17:24 38° NE
Cosmos 1980 4.4 02:14:42 10° NNW 02:20:15 50° ENE 02:22:16 35° ESE
Cosmos 676 Rocket 3.9 02:23:51 74° ESE 02:23:58 74° ESE 02:29:15 10° NNE
Cosmos 1190 Rocket 4.1 02:25:26 62° W 02:25:47 64° WNW 02:31:05 10° NNE
Cosmos 2061 Rocket 4.4 02:21:47 10° NNW 02:27:41 46° W 02:28:22 44° WSW
Cosmos 2123 Rocket 3.8 02:26:45 64° SSW 02:27:44 81° W 02:33:57 10° N
ERBS 4.3 02:29:05 28° N 02:29:05 28° N 02:31:16 10° NNE
Meteor 2-2 Rocket 4.2 02:27:11 10° N 02:32:49 77° E 02:33:42 63° SE
Cosmos 2228 Rocket 3.3 02:28:33 10° N 02:32:56 65° ENE 02:32:56 65° ENE
CZ-4B R/B 4.0 02:37:48 14° NW 02:37:48 14° NW 02:38:29 10° NW
Lacrosse 4 Rocket 3.9 02:36:39 12° E 02:36:39 12° E 02:37:55 10° E
NOSS 0 Rocket 3.9 02:31:10 10° NNW 02:37:24 86° ENE 02:39:01 53° SSE
Cosmos 2233 Rocket 4.1 02:31:53 10° N 02:38:13 73° E 02:39:57 49° SSE
Cosmos 2237 Rocket 2.4 02:32:42 10° NNW 02:38:19 64° ENE 02:40:03 43° SE
SL-16 R/B 3.8 02:36:17 10° N 02:41:17 31° NE 02:46:15 10° ESE
Cosmos 1300 3.4 02:38:50 10° N 02:41:48 52° N 02:41:48 52° N
USA 234 3.2 02:37:01 14° SE 02:42:44 84° NE 02:49:19 10° NW
Cosmos 1408 Rocket 4.3 02:43:38 44° WNW 02:43:38 44° WNW 02:47:20 10° N
SL-14 R/B 3.7 02:46:35 64° NNE 02:46:35 64° NNE 02:50:05 10° N
Cosmos 1500 Rocket 3.6 02:51:24 73° E 02:51:24 73° E 02:55:46 10° NNE
NOSS 2-1 (D) 3.6 02:53:08 65° NNE 02:53:08 65° NNE 02:56:49 10° NE
NOSS 2-1 (C) 3.6 02:53:18 65° NNE 02:53:18 65° NNE 02:56:57 10° NE
Cosmos 2227 Rocket 2.1 02:53:35 65° SSW 02:54:29 86° ESE 03:00:11 10° NNE
Cosmos 1725 Rocket 4.2 02:49:02 10° NNW 02:55:08 52° W 02:56:11 47° WSW
Cosmos 614 Rocket 3.9 02:54:46 67° SSE 02:55:21 75° ESE 03:00:35 10° NNE
CZ-2D R/B 4.2 02:56:29 10° NE 03:00:05 18° E 03:02:39 13° SE
ATLAS 2AS CENTAUR R/B 3.1 02:53:09 10° NW 03:00:50 53° WSW 03:02:31 45° SSW
Cosmos 1140 Rocket 3.4 03:02:19 65° SW 03:02:59 76° WNW 03:08:13 10° NNE
Cosmos 2151 2.8 03:09:37 87° NW 03:09:37 87° NW 03:13:49 10° N
BREEZE-M DEB 3.6 03:12:11 50° SE 03:12:11 50° SE 03:14:57 10° ENE
Cosmos 1515 Rocket 3.7 03:08:05 10° NNW 03:12:11 57° WNW 03:12:11 57° WNW
Cosmos 1743 Rocket 4.1 03:14:02 45° WNW 03:14:02 45° WNW 03:18:17 10° N
Cosmos 1464 Rocket 4.3 03:08:56 10° N 03:15:02 62° E 03:18:14 29° SSE
NOSS 2-1 (E) 3.6 03:15:36 55° WNW 03:15:42 55° NW 03:19:59 10° NNE
DELTA 2 R/B (1) 3.5 03:15:49 58° SSW 03:16:34 65° SSE 03:22:04 10° E
Aureole 2 Rocket 3.4 03:12:55 10° NNW 03:16:12 47° WNW 03:16:12 47° WNW
Cosmos 1241 Rocket 4.5 03:11:40 10° NNW 03:18:10 85° ENE 03:22:33 21° SSE
ATLAS 3B CENTAUR R/B 4.4 02:57:37 10° WSW 03:19:51 46° SSW 03:28:16 10° ESE
CZ-3B DEB 4.4 03:13:03 33° SSW 03:20:40 72° SE 03:34:51 10° NE
Cosmos 1455 2.8 03:20:45 10° N 03:24:34 53° E 03:25:13 46° ESE
Cosmos 1850 Rocket 3.9 03:25:09 55° SW 03:26:17 80° WNW 03:31:30 10° NNE
Cosmos 2082 3.9 03:25:59 44° WSW 03:27:32 61° WNW 03:33:07 10° NNE
Sich 1 4.3 03:27:23 26° SE 03:28:57 35° E 03:32:53 10° NNE
Cosmos 1626 2.1 03:29:33 77° NW 03:29:33 77° NW 03:33:09 10° N
Helios 1A Rocket 3.5 03:27:27 10° N 03:31:25 43° WNW 03:31:41 42° W
Cosmos 1633 Rocket 4.5 03:30:16 23° SE 03:32:04 31° E 03:35:56 10° NNE
Cosmos 1741 Rocket 4.0 03:33:00 48° SW 03:34:25 71° WNW 03:39:46 10° NNE
Cosmos 1356 3.4 03:35:41 82° NNE 03:35:41 82° NNE 03:39:04 10° N
Cosmos 1151 Rocket 3.6 03:32:04 10° NNW 03:36:06 42° W 03:36:06 42° W
IRS-P3 4.0 03:32:49 10° NNE 03:38:10 80° WNW 03:39:54 44° SSW
Cosmos 2058 3.3 03:39:02 45° W 03:39:12 45° WNW 03:43:12 10° N
COBE Rocket 4.5 03:38:28 10° NNE 03:42:57 47° E 03:44:57 29° SSE
SL-08 R/B 3.3 03:47:32 41° S 03:49:11 69° WSW 03:54:10 10° NNW
CBERS-1 4.0 03:44:26 10° N 03:49:33 74° WNW 03:51:23 40° SSW
AQUA 3.7 03:47:16 10° N 03:52:02 77° WNW 03:53:35 42° SSW
Cosmos 1570 Rocket 4.2 03:48:09 10° NNW 03:53:20 52° WSW 03:54:58 38° SSW
ARIANE 5 R/B 3.0 03:50:39 10° NNE 03:55:38 54° E 03:58:24 25° SSE
Cosmos 2219 Rocket 4.0 03:55:39 10° WNW 03:58:04 15° W 03:58:04 15° W
ADEOS 4.0 03:54:09 10° NNE 03:59:19 58° ESE 04:02:22 24° S
Cosmos 2297 Rocket 3.1 03:57:56 25° WSW 04:00:21 37° WNW 04:05:35 10° N
Cosmos 2333 Rocket 3.7 03:56:38 10° WNW 04:00:01 18° W 04:00:01 18° W
SL-16 R/B 2.5 04:00:45 15° SSE 04:05:56 87° WSW 04:12:10 10° NNW
NPP 4.1 04:01:23 10° N 04:06:35 49° WNW 04:08:53 30° SW
BREEZE-M R/B 4.2 04:05:10 27° SSW 04:09:02 50° SE 04:13:13 10° ENE
Cosmos 1869 3.2 04:06:01 10° N 04:10:03 82° W 04:11:46 33° S
Resurs 1-4 Rocket 2.1 04:06:34 10° NNE 04:11:55 85° ESE 04:15:04 26° SSW
Cosmos 1707 Rocket 3.6 04:08:47 10° NNW 04:13:07 62° W 04:14:58 32° SSW
Lacrosse 4 Rocket 1.6 04:12:59 36° WSW 04:14:25 57° WNW 04:18:35 10° NNE
Cosmos 2034 Rocket 4.1 04:09:00 10° NNW 04:15:16 61° W 04:19:26 22° SSW
ATLAS 5 CENTAUR R/B 3.2 04:13:11 16° SSE 04:15:58 29° ESE 04:20:13 10° NE
USA 161 4.1 04:19:43 10° E 04:20:04 10° ENE 04:20:26 10° ENE
Cosmos 2237 Rocket 3.7 04:18:14 10° WNW 04:21:45 17° W 04:21:49 17° W
Cosmos 841 Rocket 4.3 04:17:16 10° N 04:22:27 52° ENE 04:27:33 10° SE
ADEOS Rocket 3.6 04:15:15 10° N 04:22:47 71° WNW 04:28:27 20° SSW
BREEZE M DEB (TANK) 4.3 04:22:53 16° SSE 04:23:09 16° SSE 04:24:49 10° ESE
Cosmos 1486 Rocket 4.2 04:21:04 22° S 04:24:28 69° ESE 04:29:41 10° NNE
SL-16 R/B 2.7 04:20:13 10° NW 04:25:28 40° WSW 04:28:34 22° SSW
USA 234 4.1 04:24:14 23° SSW 04:26:10 26° SW 04:31:30 10° WNW
Cosmos 1666 Rocket 3.9 04:25:38 29° SW 04:27:32 49° W 04:31:53 10° N
Cosmos 332 Rocket 3.7 04:23:58 10° NNW 04:28:49 81° WSW 04:33:41 10° SSE
Cosmos 2242 Rocket 3.6 04:26:24 10° N 04:30:55 86° W 04:34:56 13° S
Cosmos 1862 Rocket 4.0 04:28:12 10° N 04:32:30 62° E 04:36:46 10° SSE
Cosmos 468 Rocket 4.1 04:27:41 10° NNW 04:32:44 53° WSW 04:37:02 14° S
UNKNOWN OBJECT B 3.0 04:30:17 10° NNE 04:34:17 70° E 04:37:03 18° S
Cosmos 2227 4.2 04:31:19 22° SSW 04:35:08 82° WNW 04:40:56 10° NNE
Tsikada Rocket 4.3 04:32:38 21° SSW 04:36:53 56° W 04:43:13 10° N
Cosmos 1933 Rocket 3.7 04:33:52 16° S 04:37:22 76° E 04:41:50 10° N
Spot 4 Rocket 4.4 04:34:09 10° N 04:39:06 48° WNW 04:42:18 21° SW
Cosmos 2227 Rocket 4.2 04:35:51 10° W 04:39:18 16° NW 04:42:45 10° N
CZ-2D R/B 2.4 04:35:22 10° N 04:40:27 54° WNW 04:43:59 20° SW
BREEZE-M DEB (TANK) 4.2 04:32:28 10° W 04:41:09 53° NNW 04:44:29 10° ENE
OAO 3 Rocket 4.1 04:41:17 21° SSW 04:43:38 33° SSE 04:48:03 10° ESE
Meteor 2-10 Rocket 3.6 04:40:37 10° N 04:45:39 75° E 04:50:43 10° SSE
Abrixas rocket 4.1 04:44:24 15° S 04:45:55 21° SE 04:48:27 10° E
UNK 4.5 04:45:07 20° SSW 04:47:33 34° W 04:51:46 10° NNW
Cosmos 1943 3.9 04:44:21 10° NNW 04:49:55 57° ENE 04:55:27 10° SE
Cosmos 1763 Rocket 3.4 04:44:47 10° NNW 04:50:00 70° WSW 04:55:06 10° S
MOS 1 Rocket 3.6 04:44:57 10° NNE 04:50:13 87° ESE 04:55:31 11° SSW
CZ-2D R/B 3.4 04:47:46 10° NNE 04:51:52 86° W 04:55:26 14° SSW
NOSS 3-4 (A) 4.1 04:46:00 10° NW 04:52:42 45° WSW 04:59:46 10° S
NOSS 3-4 (C) 4.1 04:46:06 10° NW 04:52:48 45° WSW 04:59:54 10° S
IRS-1D 4.3 04:48:51 10° N 04:53:48 40° WNW 04:57:33 16° SW
Cosmos 1315 Rocket 4.1 04:50:19 10° SSE 04:54:04 39° E 04:57:48 10° NNE
Cosmos 2263 Rocket 2.9 04:48:57 10° S 04:54:17 49° ESE 04:59:38 10° NE
Meteor 2-3 Rocket 4.3 04:53:49 10° S 04:59:24 61° E 05:05:05 10° NNE
Cosmos 1814 Rocket 4.4 04:54:36 10° NNW 04:59:40 44° WSW 05:04:42 10° S
Cosmos 1892 3.2 04:58:04 10° S 05:01:48 59° E 05:05:35 10° NNE
DELTA 2 R/B (1) 3.5 04:57:20 10° W 05:02:54 75° S 05:08:28 10° E
Cosmos 1503 Rocket 4.1 04:58:55 10° SSW 05:04:08 81° ESE 05:09:24 10° NNE
MOZ.5/SAFIR/RUBIN 5/SL-8 4.0 05:01:13 10° S 05:05:52 54° W 05:10:34 10° NNW
Cosmos 1818 3.5 05:03:36 10° NNW 05:09:05 84° WSW 05:14:30 10° SSE
In-Cosmos 22 Rocket 4.1 05:03:50 10° SSW 05:09:07 69° W 05:14:26 10° N
Cosmos 1470 Rocket 4.2 05:09:00 14° SW 05:12:23 38° WNW 05:16:26 10° N
ORS 1 (USA 231) 4.4 05:11:34 10° W 05:14:37 70° S 05:17:40 10° E
Okean O Rocket 2.7 05:11:40 10° NNE 05:15:50 44° E 05:19:59 10° S
Cosmos 2285 Rocket 4.0 05:09:48 10° NNW 05:16:04 68° WSW 05:22:18 10° S
SL-24 R/B 3.7 05:12:43 10° N 05:16:30 69° WNW 05:20:06 10° SSW
Cosmos 2279 Rocket 4.0 05:10:38 10° N 05:16:52 87° W 05:23:06 10° S
GP-B 3.1 05:13:56 10° N 05:18:24 87° W 05:22:50 10° S
Cosmos 1634 Rocket 4.3 05:12:58 10° NNW 05:18:52 48° W 05:24:44 10° SSW
Cosmos 836 Rocket 4.5 05:17:07 10° NNW 05:22:23 80° WSW 05:27:38 10° SSE
Landsat 4 3.8 05:19:25 10° SSE 05:23:13 84° ENE 05:27:03 10° NNW
Cosmos 1933 4.2 05:19:53 10° NNW 05:23:33 31° W 05:27:10 10° SSW
Cosmos 1869 Rocket 4.0 05:19:58 10° S 05:24:24 68° E 05:28:51 10° NNE
Cosmos 540 Rocket 3.5 05:24:30 10° NNW 05:29:43 85° WSW 05:34:52 10° SSE
Cosmos 1354 Rocket 4.2 05:25:42 10° SSW 05:30:54 59° WNW 05:36:08 10° NNE
CZ-3A R/B 2.3 05:28:09 10° NW 05:31:36 75° SW 05:43:26 10° SE
Cosmos 1400 Rocket 3.6 05:28:54 10° SW 05:32:29 33° WNW 05:36:08 10° N
Cosmos 371 Rocket 4.4 05:28:42 10° NW 05:32:31 24° W 05:36:18 10° SSW
ARIANE 5 R/B 4.2 05:30:52 10° NNW 05:34:19 19° WNW 05:37:43 10° WSW
Okean 1-7 3.2 05:31:06 10° N 05:35:22 76° E 05:39:37 10° SSE
Cosmos 1825 3.8 05:32:27 10° SSE 05:35:56 36° E 05:39:28 10° NNE
PSLV R/B 3.9 05:31:53 10° NNE 05:36:05 64° E 05:40:14 10° S
Cosmos 2084 4.0 05:36:25 10° SSW 05:40:17 49° ESE 05:44:01 10° NE
